Regional Weather Roundup
Issued by NWS Newport/Morehead, NC

Current Version | Previous Version | Graphics & Text | Print | Product List | Glossary Off
Versions: 1 2 3 4 5 6 7 8 9 10 11 12 13 14 15 16 17 18 19 20 21 22 23 24 25 26 27 28 29 30 31 32 33 34 35 36 37 38 39 40 41 42 43 44 45 46 47 48 49 50

000
ASUS42 KMHX 272226
RWRMHX
WEATHER ROUNDUP FOR EASTERN NORTH CAROLINA
NATIONAL WEATHER SERVICE NEWPORT/MOREHEAD CITY NC
600 PM EDT THU JUL 27 2017

NOTE: "FAIR" INDICATES FEW OR NO CLOUDS BELOW 12,000 FEET
WITH NO SIGNIFICANT WEATHER AND/OR OBSTRUCTIONS TO VISIBILITY

NCZ015>017-031-032-045>047-102-103-272300-
NORTH COAST

CITY           SKY/WX    TMP DP  RH WIND       PRES   REMARKS
EDENTON        PTSUNNY   86  73  63 S10       29.93F
ELIZABETH CITY CLOUDY    85  73  67 S8        29.93S
KITTY HAWK     CLOUDY    82  69  64 CALM      29.94S
MANTEO         CLOUDY    83  70  66 SW15      29.95S

$$

NCZ045>047-081-094-103-104-272300-
CENTRAL COAST

CITY           SKY/WX    TMP DP  RH WIND       PRES   REMARKS
FRISCO         MOSUNNY   83  72  69 SW7       29.97F

$$

NCZ095-097-098-100-101-272300-
SOUTHERN COAST

CITY           SKY/WX    TMP DP  RH WIND       PRES   REMARKS
BEAUFORT       PTSUNNY   84  73  69 S9        29.97F
CEDAR ISLAND   NOT AVBL
JACKSONVILLE   MOSUNNY   84  71  65 S9        29.96S
PINEY ISLAND   PTCLDY   N/A N/A N/A S14       29.96F
WILMINGTON     PTSUNNY   85  71  63 S9        29.97S


$$

NCZ011>013-027>030-043-044-078>080-089-090>093-098-272300-
COASTAL PLAIN

CITY           SKY/WX    TMP DP  RH WIND       PRES   REMARKS
AHOSKIE          N/A     82  74  79 CALM      29.92F
CLINTON        MOSUNNY   89  72  57 CALM      29.94F
ELIZABETHTOWN  NOT AVBL
GOLDSBORO      MOSUNNY   91  67  45 SW10      29.93S
GREENVILLE     MOSUNNY   88  68  51 SW7       29.95S
HAVELOCK       CLOUDY    84  69  60 S10       29.97F
KENANSVILLE    MOSUNNY   86  70  58 S3        29.95S
KINSTON        PTSUNNY   90  66  45 S12       29.94F
NEW BERN       MOSUNNY   86  68  54 S8        29.97S
RICHLANDS      MOSUNNY   86  68  54 S12       29.96S
ROCKY MOUNT    CLOUDY    85  74  69 S3        29.93F
WASHINGTON     MOSUNNY   86  71  60 S9        29.94S
WHITEVILLE     CLOUDY    88  69  54 S7        29.96S

$$

AMZ130-135-150-152-154-156-158-170-250-252-270-ANZ085-086-088-633-658-670-272300-
MARINE OBSERVATIONS

STATION/POSITION TIME  TEMP    WIND        PRES    WAVE   SWELL
                       AIR SEA DIR/SP/G            HT/PER HT/PER
                 (UTC) (F)     (DEG/KT/KT) (MB)    (FT/S) (FT/S)
CHESAPEAKE LIGHT NOT AVBL
64 E VA BEACH    2150   78 79  190/ 12/ 14 1014.4    3/ 6   2/ 6
DUCK             2200   83 72  180/ 11/ 14 1013.0
2 E DUCK         2200      75                N/A     2/ 7
OREGON INLET     2200   81 81  190/ 14/ 16 1014.3
13E OREGON INLT  2148      79                N/A     3/ 8   2/ 8
HATTERAS CG      2200   82 80  210/  5/  8 1014.7
DIAMOND BUOY     2150   82 85  200/  8/ 12 1015.0    2/ 8   2/ 8
CAPE LOOKOUT     2200   82     180/  9/ 10 1014.8
BEAUFORT LAB     2200   83 82  190/ 11/ 12 1014.3
30 SE NEW RVR IN 2208   82 85  180/  6/ 10 1015.3
30 SE NEW RVR IN 2213      85                N/A     2/ 8
27 SE WRIGHTSVLE 2208   83 84  160/  8/ 12 1015.1
5 SE WRIGHTSVLE  2208   82 83  190/ 10/ 14 1014.9
225 S CAPE HAT   2150   83 84  330/  6/  8 1015.2    3/ 8   3/ 8
41 SE CHARLESTON 2210   81 83  180/  8/ 10 1014.4

$$



USA.gov is the U.S. government's official web portal to all federal, state and local government web resources and services.